Location: Keewatin
(47.4004°N, 93.0827°W)
Time: 11:20:04
(UTC+00:00)

Envisat - Pass Details

Date: 17 December 2019
Orbit: 764 x 766 km, 98.1° (Epoch: 18 January)

Event Time Altitude Azimuth Distance (km) Brightness Sun altitude
Rises 01:35:06 0° 216° (SW) 3,223 6.7 -31.5°
Reaches altitude 10° 01:38:34 10° 242° (WSW) 2,303 6.2 -32.0°
Maximum altitude 01:41:11 14° 273° (W) 2,038 6.0 -32.5°
Drops below altitude 10° 01:43:48 10° 304° (NW) 2,312 6.1 -32.9°
Sets 01:47:19 0° 329° (NNW) 3,244 6.6 -33.5°
